Location: Maccacari
(45.1333°N, 11.1333°E)
Time: 23:20:36
(UTC+00:00)

A-11 Canister half - Pass Details

Date: 27 January 2021
Orbit: 1525 x 1684 km, 47.3° (Epoch: 07 March)

Event Time Altitude Azimuth Distance (km) Brightness Sun altitude
Rises 13:21:19 0° 236° (SW) 4,665 12.6 21.5°
Reaches altitude 10° 13:24:20 10° 234° (SW) 3,688 12.4 21.3°
Maximum altitude 13:33:33 72° 153° (SSE) 1,607 9.6 20.5°
Drops below altitude 10° 13:43:02 10° 71° (ENE) 3,779 10.7 19.6°
Sets 13:46:10 0° 70° (ENE) 4,786 11.1 19.2°
